Regional Weather Roundup
Issued by NWS

Home | Current Version | Previous Version | Graphics & Text | Print | Product List | Glossary On
Versions: 1 2 3 4 5 6 7 8 9 10 11 12 13 14 15 16 17 18 19 20 21 22 23 24 25 26 27 28 29 30 31 32 33 34 35 36 37 38 39 40 41 42 43 44 45 46 47 48 49 50
000
ASUS43 KLMK 300510
RWRKY
KENTUCKY REGIONAL WEATHER ROUNDUP
NATIONAL WEATHER SERVICE LOUISVILLE KY
100 AM EDT SAT APR 30 2016

NOTE "FAIR" INDICATES FEW OR NO CLOUDS BELOW 12,000 FEET
WITH NO SIGNIFICANT WEATHER AND/OR OBSTRUCTIONS TO VISIBILITY.

KYZ001>023-026-027-061>063-070>075-300600-
WESTERN AND SOUTH CENTRAL KENTUCKY

CITY           SKY/WX    TMP DP  RH WIND       PRES   REMARKS
PADUCAH        CLOUDY    61  57  87 E7        29.91F
HENDERSON      CLOUDY    61  54  77 NE9       29.94F
OWENSBORO      LGT RAIN  62  56  81 E12       29.96F
HOPKINSVILLE   CLOUDY    62  59  89 E3        29.93F
BOWLING GREEN  MOCLDY    65  57  75 E7        29.95F
GLASGOW        CLOUDY    64  55  70 E9        29.96F
$$

KYZ024-025-028>034-038-045-046-053-300600-
NORTH CENTRAL KENTUCKY

CITY           SKY/WX    TMP DP  RH WIND       PRES   REMARKS
LOUISVILLE/SDF CLOUDY    65  48  54 E8        30.00F
LOUISVILLE/LOU CLOUDY    64  49  57 CALM      30.01F
FORT KNOX      LGT RAIN  63  52  67 E5        30.00R
$$

KYZ035>037-039>044-047>052-055>060-089>105-300600-
NORTHEAST KENTUCKY

CITY           SKY/WX    TMP DP  RH WIND       PRES   REMARKS
LEXINGTON      CLOUDY    61  51  70 E9        30.03F
COVINGTON      NOT AVBL
FRANKFORT      CLOUDY    62  49  62 E9        30.01F
$$

KYZ054-064>069-076>088-106>120-300600-
SOUTHEAST KENTUCKY

CITY           SKY/WX    TMP DP  RH WIND       PRES   REMARKS
JACKSON        CLOUDY    61  50  67 CALM      30.08R
LONDON         CLOUDY    64  49  57 S3        30.04S
SOMERSET       CLOUDY    63  52  67 NE6       30.04F
MIDDLESBORO    CLOUDY    62  54  75 CALM      30.03S
MONTICELLO     CLOUDY    64  56  75 NW6       30.03F
$$




USA.gov is the U.S. government's official web portal to all federal, state and local government web resources and services.